Location: Unspecified
(0.0000°N, 0.0000°E)
Time: 06:40:07
(UTC+00:00)

Vanguard 2 - Visible Passes

Search period start: 28 July 2016 00:00
Search period end: 07 August 2016 00:00
Orbit: 555 x 2940 km, 32.9° (Epoch: 27 July)

Date Brightness Start Highest point End Pass type
(mag) Time Alt. Az. Time Alt. Az. Time Alt. Az.
28 Jul 10.8 01:36:23 40° E 01:36:23 40° E 01:44:52 10° ENE visible
28 Jul 10.1 03:37:50 52° W 03:42:13 63° NW 03:55:20 10° NE visible
28 Jul 10.9 05:43:52 10° WNW 05:54:06 21° NW 06:01:55 10° N visible
29 Jul 10.5 01:53:35 52° ENE 01:53:35 52° ENE 02:03:51 10° ENE visible
29 Jul 10.4 03:55:01 38° W 04:00:49 49° NW 04:13:23 10° NE visible
30 Jul 10.3 02:10:44 64° NE 02:10:44 64° NE 02:22:30 10° NE visible
30 Jul 10.6 04:12:09 27° WNW 04:19:30 38° NW 04:31:17 10° NNE visible
31 Jul 11.6 00:26:23 16° ENE 00:26:23 16° ENE 00:28:47 10° ENE visible
31 Jul 10.2 02:27:49 67° N 02:27:49 67° N 02:40:55 10° NE visible
31 Jul 10.9 04:29:14 18° WNW 04:38:21 29° NW 04:49:04 10° NNE visible
01 Aug 11.4 00:43:26 24° ENE 00:43:26 24° ENE 00:48:04 10° ENE visible
01 Aug 10.3 02:44:51 58° NNW 02:44:51 58° NNW 02:59:09 10° NE visible
01 Aug 11.1 04:46:17 11° WNW 04:57:25 22° NNW 05:06:41 10° NNE visible
02 Aug 11.2 01:00:26 31° ENE 01:00:26 31° ENE 01:06:58 10° ENE visible
02 Aug 10.5 03:01:51 45° NW 03:02:54 46° NW 03:17:14 10° NE visible
02 Aug 11.3 05:07:55 10° WNW 05:16:46 17° NNW 05:24:10 10° N visible
03 Aug 11.0 01:17:22 39° NE 01:17:22 39° NE 01:25:36 10° NE visible
03 Aug 10.8 03:18:47 34° NW 03:21:51 36° NNW 03:35:12 10° NNE visible
03 Aug 11.5 05:30:49 10° NW 05:36:25 13° NNW 05:41:21 10° N visible
04 Aug 10.8 01:34:15 43° NNE 01:34:15 43° NNE 01:44:00 10° NE visible
04 Aug 11.1 03:35:39 24° NW 03:41:00 28° NNW 03:53:05 10° NNE visible
04 Aug 11.8 23:49:42 12° ENE 23:49:42 12° ENE 23:50:25 10° ENE visible
05 Aug 10.8 01:51:05 44° N 01:51:05 44° N 02:02:14 10° NE visible
05 Aug 11.3 03:52:30 16° WNW 04:00:25 22° NNW 04:10:57 10° NNE visible
06 Aug 11.7 00:06:29 18° NE 00:06:29 18° NE 00:09:17 10° NE visible
06 Aug 10.9 02:07:53 40° NNW 02:07:53 40° NNW 02:20:21 10° NE visible
06 Aug 11.5 04:10:09 10° WNW 04:20:08 17° NNW 04:28:51 10° NNE visible
06 Aug 10.7 19:41:45 10° S 19:43:39 12° SSE 19:43:39 12° SSE visible
